When you browse on this site, cookies collect data to enhance your experience and personalize the content and advertising you see.
Visit our Privacy Policy to learn more. By continuing to use the site, you agree to this use of cookies and data.
  • En España
  • Lista de países
  • Para 7 días
  • Temperatura del agua
  • El tiempo en el mapa
  • Informadores
  • user-avatar
    Iniciar sesión

    Tiempo cada hora Naxçıvanlı

    Hoy, 10 Abril, Viernes

    Tiempo Temperatura Precipitaciones Viento Presión Humedad
    00:00 +11°C° 0 mm 1 mps 683 mmHg 63%
    01:00 +10°C° 0 mm 1 mps 683 mmHg 64%
    02:00 +9°C° 0 mm 2 mps 682 mmHg 66%
    03:00 +10°C° 0 mm 1 mps 681 mmHg 64%
    04:00 +10°C° 0 mm 1 mps 682 mmHg 64%
    05:00 +9°C° 0 mm 1 mps 682 mmHg 65%
    06:00 +9°C° 0 mm 1 mps 682 mmHg 66%
    07:00 +10°C° 0.3 mm 1 mps 681 mmHg 66%
    08:00 +9°C° 0.3 mm 2 mps 681 mmHg 66%
    09:00 +10°C° 0.3 mm 2 mps 681 mmHg 66%
    10:00 +10°C° 0.6 mm 2 mps 681 mmHg 69%
    11:00 +11°C° 0.6 mm 1 mps 680 mmHg 73%
    12:00 +10°C° 0.6 mm 1 mps 680 mmHg 77%
    13:00 +11°C° 0 mm 1 mps 680 mmHg 73%
    14:00 +12°C° 0 mm 1 mps 680 mmHg 70%
    15:00 +13°C° 0 mm 1 mps 679 mmHg 67%
    16:00 +13°C° 0.1 mm 1 mps 680 mmHg 67%
    17:00 +13°C° 0.1 mm 2 mps 680 mmHg 68%
    18:00 +13°C° 0.1 mm 2 mps 680 mmHg 68%
    19:00 +12°C° 0.2 mm 2 mps 680 mmHg 72%
    20:00 +12°C° 0.2 mm 2 mps 681 mmHg 76%
    21:00 +10°C° 0.2 mm 2 mps 681 mmHg 80%
    22:00 +11°C° 0.1 mm 1 mps 681 mmHg 80%
    23:00 +10°C° 0.1 mm 1 mps 681 mmHg 81%

    Mañana, 11 Abril, Sábado

    Tiempo Temperatura Precipitaciones Viento Presión Humedad
    00:00 +10°C° 0.1 mm 1 mps 681 mmHg 82%
    01:00 +10°C° 0 mm 1 mps 681 mmHg 81%
    02:00 +9°C° 0 mm 0 mps 681 mmHg 81%
    03:00 +9°C° 0 mm 0 mps 681 mmHg 81%
    04:00 +9°C° 0 mm 1 mps 681 mmHg 82%
    05:00 +9°C° 0 mm 1 mps 681 mmHg 83%
    06:00 +9°C° 0 mm 1 mps 682 mmHg 83%
    07:00 +8°C° 0.3 mm 2 mps 681 mmHg 83%
    08:00 +8°C° 0.3 mm 3 mps 681 mmHg 82%
    09:00 +8°C° 0.3 mm 3 mps 681 mmHg 82%
    10:00 +8°C° 0.3 mm 3 mps 681 mmHg 81%
    11:00 +8°C° 0.3 mm 2 mps 681 mmHg 81%
    12:00 +9°C° 0.3 mm 2 mps 681 mmHg 80%
    13:00 +10°C° 0.1 mm 1 mps 681 mmHg 76%
    14:00 +11°C° 0.1 mm 1 mps 681 mmHg 72%
    15:00 +12°C° 0.1 mm 1 mps 681 mmHg 67%
    16:00 +12°C° 0 mm 1 mps 681 mmHg 66%
    17:00 +12°C° 0 mm 1 mps 682 mmHg 65%
    18:00 +12°C° 0 mm 1 mps 682 mmHg 63%
    19:00 +12°C° 0 mm 1 mps 682 mmHg 68%
    20:00 +10°C° 0 mm 0 mps 683 mmHg 72%
    21:00 +9°C° 0 mm 0 mps 683 mmHg 77%
    22:00 +9°C° 0 mm 0 mps 683 mmHg 77%
    23:00 +9°C° 0 mm 0 mps 684 mmHg 77%

    Pasado mañana, 12 Abril, Domingo

    Tiempo Temperatura Precipitaciones Viento Presión Humedad
    00:00 +9°C° 0 mm 0 mps 684 mmHg 77%
    01:00 +10°C° 0 mm 1 mps 684 mmHg 76%
    02:00 +10°C° 0 mm 1 mps 684 mmHg 75%
    03:00 +9°C° 0 mm 2 mps 684 mmHg 74%
    04:00 +8°C° 0 mm 2 mps 684 mmHg 72%
    05:00 +8°C° 0 mm 2 mps 685 mmHg 69%
    06:00 +8°C° 0 mm 2 mps 685 mmHg 66%
    07:00 +9°C° 0 mm 2 mps 685 mmHg 59%
    08:00 +10°C° 0 mm 2 mps 685 mmHg 52%
    09:00 +12°C° 0 mm 2 mps 685 mmHg 46%
    10:00 +13°C° 0 mm 2 mps 685 mmHg 43%
    11:00 +14°C° 0 mm 2 mps 685 mmHg 40%
    12:00 +14°C° 0 mm 2 mps 685 mmHg 37%
    13:00 +15°C° 0 mm 2 mps 685 mmHg 36%
    14:00 +16°C° 0 mm 2 mps 685 mmHg 35%
    15:00 +16°C° 0 mm 2 mps 684 mmHg 33%
    16:00 +16°C° 0 mm 3 mps 684 mmHg 35%
    17:00 +16°C° 0 mm 3 mps 685 mmHg 36%
    18:00 +14°C° 0 mm 3 mps 685 mmHg 37%
    19:00 +14°C° 0 mm 2 mps 685 mmHg 44%
    20:00 +13°C° 0 mm 2 mps 686 mmHg 51%
    21:00 +13°C° 0 mm 2 mps 686 mmHg 57%
    22:00 +12°C° 0 mm 2 mps 687 mmHg 60%
    23:00 +10°C° 0 mm 2 mps 687 mmHg 62%

    13 Abril, Lunes

    Tiempo Temperatura Precipitaciones Viento Presión Humedad
    00:00 +10°C° 0 mm 2 mps 687 mmHg 64%
    01:00 +9°C° 0 mm 2 mps 687 mmHg 63%
    02:00 +9°C° 0 mm 2 mps 687 mmHg 61%
    03:00 +8°C° 0 mm 2 mps 687 mmHg 59%
    04:00 +8°C° 0 mm 2 mps 688 mmHg 59%
    05:00 +8°C° 0 mm 1 mps 688 mmHg 59%
    06:00 +8°C° 0 mm 1 mps 688 mmHg 58%
    07:00 +9°C° 0 mm 1 mps 688 mmHg 55%
    08:00 +10°C° 0 mm 1 mps 689 mmHg 52%
    09:00 +11°C° 0 mm 1 mps 689 mmHg 49%
    10:00 +12°C° 0 mm 1 mps 689 mmHg 47%
    11:00 +13°C° 0 mm 1 mps 689 mmHg 45%
    12:00 +14°C° 0 mm 1 mps 689 mmHg 43%
    13:00 +14°C° 0 mm 2 mps 688 mmHg 41%
    14:00 +15°C° 0 mm 2 mps 688 mmHg 39%
    15:00 +16°C° 0 mm 3 mps 688 mmHg 38%
    16:00 +14°C° 0 mm 3 mps 688 mmHg 40%
    17:00 +14°C° 0 mm 3 mps 688 mmHg 42%
    18:00 +13°C° 0 mm 3 mps 688 mmHg 44%
    19:00 +12°C° 0 mm 3 mps 688 mmHg 49%
    20:00 +11°C° 0 mm 3 mps 689 mmHg 53%
    21:00 +10°C° 0 mm 3 mps 689 mmHg 57%
    22:00 +10°C° 0 mm 3 mps 689 mmHg 59%
    23:00 +9°C° 0 mm 3 mps 688 mmHg 61%

    14 Abril, Martes

    Tiempo Temperatura Precipitaciones Viento Presión Humedad
    00:00 +8°C° 0 mm 3 mps 688 mmHg 63%
    01:00 +8°C° 0 mm 2 mps 688 mmHg 65%
    02:00 +8°C° 0 mm 2 mps 688 mmHg 66%
    03:00 +8°C° 0 mm 1 mps 688 mmHg 68%
    04:00 +8°C° 0 mm 1 mps 688 mmHg 68%
    05:00 +8°C° 0 mm 1 mps 688 mmHg 69%
    06:00 +8°C° 0 mm 1 mps 688 mmHg 70%
    07:00 +9°C° 0 mm 1 mps 688 mmHg 64%
    08:00 +11°C° 0 mm 1 mps 688 mmHg 59%
    09:00 +12°C° 0 mm 1 mps 688 mmHg 53%
    10:00 +13°C° 0 mm 1 mps 688 mmHg 50%
    11:00 +15°C° 0 mm 1 mps 688 mmHg 46%
    12:00 +16°C° 0 mm 1 mps 687 mmHg 43%
    13:00 +18°C° 0 mm 1 mps 687 mmHg 40%
    14:00 +19°C° 0 mm 1 mps 687 mmHg 37%
    15:00 +19°C° 0 mm 1 mps 687 mmHg 34%
    16:00 +19°C° 0 mm 1 mps 687 mmHg 35%
    17:00 +19°C° 0 mm 1 mps 687 mmHg 36%
    18:00 +19°C° 0 mm 1 mps 687 mmHg 36%
    19:00 +18°C° 0 mm 1 mps 687 mmHg 41%
    20:00 +16°C° 0 mm 1 mps 687 mmHg 46%
    21:00 +15°C° 0 mm 1 mps 687 mmHg 51%
    22:00 +14°C° 0 mm 1 mps 687 mmHg 54%
    23:00 +14°C° 0 mm 2 mps 687 mmHg 56%

    15 Abril, Miércoles

    Tiempo Temperatura Precipitaciones Viento Presión Humedad
    00:00 +13°C° 0 mm 2 mps 686 mmHg 58%
    01:00 +13°C° 0 mm 1 mps 686 mmHg 60%
    02:00 +12°C° 0 mm 1 mps 686 mmHg 61%
    03:00 +12°C° 0 mm 1 mps 685 mmHg 62%
    04:00 +12°C° 0 mm 1 mps 685 mmHg 62%
    05:00 +11°C° 0 mm 0 mps 685 mmHg 63%
    06:00 +11°C° 0 mm 0 mps 685 mmHg 64%
    07:00 +12°C° 0 mm 0 mps 686 mmHg 56%
    08:00 +14°C° 0 mm 0 mps 686 mmHg 48%
    09:00 +16°C° 0 mm 0 mps 686 mmHg 40%
    10:00 +19°C° 0 mm 1 mps 686 mmHg 36%
    11:00 +20°C° 0 mm 1 mps 686 mmHg 32%
    12:00 +21°C° 0 mm 1 mps 686 mmHg 28%
    13:00 +21°C° 0 mm 1 mps 685 mmHg 26%
    14:00 +22°C° 0 mm 1 mps 685 mmHg 24%
    15:00 +22°C° 0 mm 1 mps 685 mmHg 22%
    16:00 +22°C° 0 mm 1 mps 685 mmHg 24%
    17:00 +22°C° 0 mm 1 mps 684 mmHg 26%
    18:00 +22°C° 0 mm 1 mps 684 mmHg 28%
    19:00 +21°C° 0 mm 1 mps 684 mmHg 30%
    20:00 +20°C° 0 mm 1 mps 684 mmHg 33%
    21:00 +19°C° 0 mm 1 mps 684 mmHg 36%
    22:00 +18°C° 0 mm 1 mps 684 mmHg 37%
    23:00 +18°C° 0 mm 1 mps 684 mmHg 39%
    Mostrar más